Location: Moena
(46.3667°N, 11.6500°E)
Time: 23:26:10
(UTC+00:00)

GP-B - Visible Passes

Search period start: 16 June 2021 00:00
Search period end: 26 June 2021 00:00
Orbit: 631 x 635 km, 89.8° (Epoch: 16 June)

Date Brightness Start Highest point End Pass type
(mag) Time Alt. Az. Time Alt. Az. Time Alt. Az.
16 Jun 5.1 00:48:24 10° NW 00:51:09 16° WNW 00:52:52 13° W visible
16 Jun 5.5 21:56:51 10° ENE 21:57:58 11° ENE 21:59:05 10° E visible
16 Jun 3.0 23:31:26 10° N 23:35:53 82° W 23:37:02 50° SSW visible
17 Jun 4.9 22:16:38 10° NNE 22:19:51 19° E 22:21:12 17° ESE visible
17 Jun 3.8 23:53:09 10° N 23:57:23 44° W 23:58:38 35° SW visible
18 Jun 4.2 22:37:35 10° NNE 22:41:38 33° E 22:42:48 29° ESE visible
19 Jun 4.6 00:15:10 10° NNW 00:18:47 25° WNW 00:20:14 21° WSW visible
19 Jun 3.3 22:58:53 10° N 23:03:18 61° E 23:04:24 45° SE visible
20 Jun 5.3 00:37:39 10° NW 00:40:05 15° WNW 00:41:51 12° W visible
20 Jun 5.4 21:45:13 10° NE 21:47:02 12° ENE 21:48:35 11° E visible
20 Jun 3.1 23:20:26 10° N 23:24:53 73° W 23:26:01 48° SSW visible
21 Jun 4.7 22:05:28 10° NNE 22:08:54 21° E 22:10:11 19° ESE visible
21 Jun 4.0 23:42:12 10° NNW 23:46:22 39° W 23:47:38 32° WSW visible
22 Jun 4.0 22:26:30 10° NNE 22:30:40 37° E 22:31:48 32° ESE visible
23 Jun 4.8 00:04:16 10° NNW 00:07:44 23° WNW 00:09:14 19° WSW visible
23 Jun 3.1 22:47:51 10° N 22:52:18 69° E 22:53:25 48° SSE visible
24 Jun 5.4 00:26:57 10° NW 00:29:00 13° WNW 00:30:51 11° W visible
24 Jun 5.2 21:33:47 10° NE 21:36:05 14° ENE 21:37:35 12° E visible
24 Jun 3.3 23:09:27 10° N 23:13:51 64° W 23:15:02 45° SW visible
25 Jun 4.6 21:54:18 10° NNE 21:57:56 24° E 21:59:12 21° ESE visible
25 Jun 4.2 23:31:16 10° NNW 23:35:19 35° W 23:36:39 28° WSW visible
